East Taunton, MA

8:40 AM EDT on September 29, 2016 (GMT -0400)
Taunton Municipal

Weather History for KTAN - October, 2010

Change the Weather History Date:

Tuesday, October 26, 2010

  Actual Average Record
Temperature  
Mean Temperature 68 °F -  
Max Temperature 73 °F 58 °F 77 °F (1963)
Min Temperature 62 °F 38 °F 19 °F (1952)
Cooling Degree Days 2    
Growing Degree Days 18 (Base 50)    
Moisture  
Dew Point 62 °F    
Average Humidity 87    
Maximum Humidity 100    
Minimum Humidity 62    
Precipitation  
Precipitation 0.01 in - - ()
Sea Level Pressure  
Sea Level Pressure 29.88 in    
Wind  
Wind Speed 11 mph (SSW)    
Max Wind Speed 20 mph    
Max Gust Speed 33 mph    
Visibility 9 miles    
Events Rain    
Averages and records for this station are not official NWS values.
T = Trace of Precipitation, MM = Missing Value Source: NWS Daily Summary

Daily Weather History Graph

Daily Weather History Graph

Search for Another Location

Airport or City:

Trip Planner

Search our weather history database for the weather conditions in past years. The results will help you decide how hot, cold, wet, or windy it might be!

Date:

Astronomy

Oct. 26, 2010 Rise Set
Actual Time 7:09 AM EDT 5:46 PM EDT
Civil Twilight 6:40 AM EDT 6:14 PM EDT
Nautical Twilight 6:07 AM EDT 6:47 PM EDT
Astronomical Twilight 5:35 AM EDT 7:19 PM EDT
Moon 8:01 PM EDT (10/26) 10:50 AM EDT (10/26)
Length of Visible Light 11h 34m
Length of Day
10h 37m
Waning Gibbous, 87% of the Moon is Illuminated
Oct 26
Waning Gibbous
Oct 30
Last Quarter
Nov 6
New
Nov 13
First Quarter
Nov 21
Full

Hourly Weather History & Observations

Time (EDT) Temp. Dew Point Humidity Pressure Visibility Wind Dir Wind Speed Gust Speed Precip Events Conditions
12:37 AM 66.2 °F 62.6 °F 88% 29.80 in 10.0 mi SSW 13.8 mph 24.2 mph 0.01 in   Mostly Cloudy
12:47 AM 66.2 °F 62.6 °F 88% 29.80 in 10.0 mi SSW 16.1 mph 26.5 mph 0.01 in   Mostly Cloudy
12:52 AM 66.0 °F 62.1 °F 87% 29.79 in 10.0 mi SSW 11.5 mph 26.5 mph 0.01 in   Mostly Cloudy
1:13 AM 66.2 °F 62.6 °F 88% 29.79 in 10.0 mi SSW 19.6 mph 33.4 mph N/A   Scattered Clouds
1:33 AM 66.2 °F 62.6 °F 88% 29.79 in 10.0 mi SSW 11.5 mph 29.9 mph N/A   Mostly Cloudy
1:52 AM 66.0 °F 62.1 °F 87% 29.80 in 10.0 mi SW 17.3 mph 29.9 mph N/A   Overcast
2:00 AM 66.2 °F 62.6 °F 88% 29.81 in 10.0 mi SSW 10.4 mph 27.6 mph N/A   Overcast
2:52 AM 64.9 °F 62.1 °F 90% 29.82 in 10.0 mi SSW 13.8 mph 21.9 mph N/A   Overcast
3:21 AM 64.4 °F 60.8 °F 88% 29.81 in 10.0 mi SSW 11.5 mph 18.4 mph N/A   Overcast
4:52 AM 64.0 °F 61.0 °F 90% 29.82 in 10.0 mi SSW 11.5 mph 18.4 mph N/A   Overcast
5:34 AM 64.4 °F 60.8 °F 88% 29.82 in 10.0 mi WSW 8.1 mph - N/A   Scattered Clouds
5:39 AM 64.4 °F 60.8 °F 88% 29.82 in 10.0 mi SW 6.9 mph - N/A   Mostly Cloudy
5:52 AM 64.0 °F 61.0 °F 90% 29.83 in 10.0 mi SSW 5.8 mph - N/A   Mostly Cloudy
6:18 AM 62.6 °F 60.8 °F 94% 29.83 in 10.0 mi SW 5.8 mph - N/A   Overcast
6:52 AM 63.0 °F 60.1 °F 90% 29.85 in 10.0 mi SW 8.1 mph - N/A   Overcast
7:52 AM 63.0 °F 60.1 °F 90% 29.85 in 10.0 mi SSW 8.1 mph - N/A   Overcast
8:52 AM 64.0 °F 60.1 °F 87% 29.88 in 10.0 mi SSW 8.1 mph - N/A   Mostly Cloudy
9:02 AM 64.4 °F 60.8 °F 88% 29.89 in 10.0 mi SW 8.1 mph - N/A   Scattered Clouds
9:52 AM 68.0 °F 60.1 °F 76% 29.90 in 10.0 mi WSW 9.2 mph 17.3 mph N/A   Partly Cloudy
10:52 AM 71.1 °F 61.0 °F 70% 29.91 in 10.0 mi SW 8.1 mph - N/A   Clear
11:52 AM 73.0 °F 60.1 °F 64% 29.91 in 10.0 mi SSW 5.8 mph - N/A   Partly Cloudy
12:52 PM 73.9 °F 60.1 °F 62% 29.91 in 10.0 mi SSW 6.9 mph - N/A   Clear
1:52 PM 73.0 °F 61.0 °F 66% 29.90 in 10.0 mi SSW 9.2 mph - N/A   Clear
2:52 PM 73.0 °F 61.0 °F 66% 29.91 in 10.0 mi South 10.4 mph 16.1 mph N/A   Partly Cloudy
3:17 PM 69.8 °F 60.8 °F 73% 29.92 in 10.0 mi South 15.0 mph 21.9 mph N/A   Mostly Cloudy
3:25 PM 68.0 °F 60.8 °F 78% 29.92 in 10.0 mi South 9.2 mph 21.9 mph N/A   Scattered Clouds
3:52 PM 66.9 °F 60.1 °F 79% 29.92 in 10.0 mi SSW 8.1 mph - N/A   Mostly Cloudy
4:52 PM 66.0 °F 61.0 °F 84% 29.93 in 8.0 mi SW 8.1 mph 16.1 mph N/A   Overcast
5:52 PM 66.0 °F 62.1 °F 87% 29.93 in 10.0 mi SSW 5.8 mph - N/A   Overcast
5:59 PM 64.4 °F 62.6 °F 94% 29.93 in 9.0 mi SSW 10.4 mph 17.3 mph N/A   Overcast
6:25 PM 64.4 °F 62.6 °F 94% 29.92 in 10.0 mi SSW 5.8 mph - N/A   Overcast
6:52 PM 64.0 °F 63.0 °F 96% 29.92 in 10.0 mi SSE 4.6 mph - N/A   Overcast
7:52 PM 64.9 °F 63.0 °F 93% 29.93 in 10.0 mi SSE 5.8 mph - N/A   Overcast
8:09 PM 64.4 °F 62.6 °F 94% 29.93 in 5.0 mi South 6.9 mph - N/A   Overcast
8:52 PM 63.0 °F 63.0 °F 100% 29.94 in 6.0 mi South 6.9 mph - N/A   Overcast
9:38 PM 62.6 °F 62.6 °F 100% 29.94 in 6.0 mi South 3.5 mph - N/A   Overcast
9:48 PM 62.6 °F 62.6 °F 100% 29.94 in 5.0 mi SSE 3.5 mph - N/A   Overcast
9:52 PM 64.0 °F 63.0 °F 96% 29.94 in 5.0 mi Variable 4.6 mph - N/A   Overcast
10:13 PM 64.4 °F 62.6 °F 94% 29.94 in 4.0 mi South 4.6 mph - 0.00 in Rain Light Rain
10:52 PM 64.0 °F 63.0 °F 96% 29.94 in 8.0 mi South 8.1 mph - 0.00 in   Overcast
11:52 PM 64.9 °F 64.9 °F 100% 29.94 in 6.0 mi SSW 10.4 mph - 0.00 in   Overcast